Station: Edithburgh  

  Atmospheric Gas Attenuation - ITU Rec 676-11   ----------------- dB/100km -----------------
Date Time Temp RH % AH g/m3 Dew Point Wind Direction Speed kph Gust kph Barometer mB Rainfall Since 9am 24GHz 47GHz 76GHz 122GHz 134GHz 241GHz
03/05 10:00 15.9 73 9.89 11.1 39 52 1009.7 0 22.2 27.2 43.7 115.1 112.4 387.8
03/05 09:50 15.7 77 10.3 11.8 41 46 1009.8 0 23.1 28.0 45.6 119.9 118.3 408.2
03/05 09:40 14.9 78 9.94 11.1 39 46 1009.8 0 22.4 27.6 44.5 117.1 114.6 395.2
03/05 09:30 14.9 72 9.18 9.9 41 54 1009.8 0 20.8 26.4 41.4 108.8 104.3 359.5
03/05 09:20 15.3 69 9.01 9.6 43 48 1009.9 0 20.4 26.0 40.5 106.5 101.6 349.9
03/05 09:10 16 71 9.67 10.7 41 52 1009.8 0 21.8 26.8 42.8 112.5 109.3 377.1
03/05 09:00 15.5 70 9.25 10.1 43 54 1009.7 0 20.9 26.3 41.4 108.7 104.5 359.9
03/05 08:50 15 76 9.75 10.8 39 46 1009.9 5.6 22.0 27.3 43.7 114.9 111.8 385.7
03/05 08:40 14.4 76 9.39 10.2 32 37 1010 5.6 21.3 26.9 42.5 111.8 107.9 371.7
03/05 08:30 14.2 77 9.4 10.2 33 44 1009.9 5.6 21.3 27.0 42.7 112.2 108.3 373.1
03/05 08:20 13.9 78 9.35 10.1 39 46 1009.8 5.6 21.2 27.0 42.6 112.1 108.0 372.1
03/05 08:10 13.5 80 9.36 10.1 32 35 1009.8 5.6 21.2 27.1 42.9 112.8 108.7 374.5
03/05 08:00 13.3 83 9.59 10.5 32 39 1009.8 5.6 21.7 27.5 44.0 115.6 112.1 386.5
03/05 07:50 13.2 84 9.65 10.5 41 44 1009.5 5.6 21.9 27.7 44.3 116.4 113.1 389.8
03/05 07:40 13.3 80 9.24 9.9 32 39 1009.5 5.4 21.0 27.0 42.5 111.7 107.3 369.7
03/05 07:30 13.5 78 9.12 9.7 26 32 1009.3 5 20.7 26.7 41.9 110.1 105.4 363.0
03/05 07:20 12.9 82 9.24 10 19 24 1009.2 5 21.0 27.1 42.7 112.2 107.9 371.5
03/05 07:10 12.9 82 9.24 9.9 30 33 1009.2 5 21.0 27.1 42.7 112.2 107.9 371.5
03/05 07:00 12.6 84 9.29 10 33 43 1009.1 5 21.1 27.2 43.1 113.2 109.0 375.3
03/05 06:50 13.1 77 8.79 9.1 43 46 1009.3 5 20.0 26.3 40.7 107.0 101.5 349.3
03/05 06:40 13.5 71 8.31 8.3 32 33 1008.9 4.8 19.0 25.4 38.6 101.3 94.6 325.2
03/05 06:30 13.5 71 8.31 8.4 30 39 1008.9 4.8 19.0 25.4 38.6 101.3 94.6 325.2
03/05 06:20 12.9 73 8.23 8.3 24 26 1008.9 4.8 18.8 25.4 38.6 101.2 94.3 324.0
03/05 06:10 12.8 73 8.18 8.2 22 26 1008.9 4.8 18.7 25.3 38.4 100.8 93.8 322.1
03/05 06:00 12.7 74 8.24 8.2 22 32 1008.8 4.8 18.9 25.5 38.7 101.6 94.7 325.3
03/05 05:50 13 71 8.05 8 26 30 1008.9 4.8 18.5 25.1 37.8 99.2 91.8 315.4
03/05 05:40 12.6 73 8.08 7.9 26 32 1008.9 4.8 18.5 25.2 38.1 100.0 92.7 318.4
03/05 05:30 13 71 8.05 7.9 26 33 1009 4.8 18.5 25.1 37.8 99.2 91.8 315.4
03/05 05:20 12.9 70 7.89 7.7 26 30 1008.9 4.8 18.1 24.8 37.2 97.6 89.8 308.5
03/05 05:10 13.1 70 7.99 7.9 28 33 1008.7 4.8 18.3 24.9 37.5 98.4 90.9 312.2
03/05 05:00 12.8 72 8.07 7.9 26 32 1008.8 4.8 18.5 25.2 38.0 99.6 92.3 317.1
03/05 04:50 13.2 70 8.04 7.8 26 30 1008.7 4.8 18.4 25.0 37.7 98.8 91.4 314.1
03/05 04:40 13.4 73 8.49 8.6 32 41 1008.5 4.8 19.4 25.7 39.3 103.3 97.1 333.8
03/05 04:30 13 76 8.62 8.9 24 30 1008.6 4.8 19.7 26.0 40.1 105.2 99.3 341.6
03/05 04:20 13.3 73 8.43 8.7 24 28 1008.5 4.8 19.3 25.6 39.2 102.8 96.4 331.5
03/05 04:10 13.5 75 8.77 9.1 30 33 1008.5 4.8 20.0 26.1 40.4 106.2 100.6 346.4
03/05 04:00 13.7 77 9.12 9.7 28 41 1008.4 4.8 20.7 26.6 41.7 109.7 105.1 361.8
03/05 03:50 13.4 82 9.53 10.4 24 30 1008.3 4.8 21.6 27.4 43.6 114.6 111.0 382.7
03/05 03:40 13.2 82 9.42 10.3 24 28 1008.3 4.8 21.4 27.2 43.2 113.7 109.8 378.4
03/05 03:30 13 83 9.41 10.2 22 26 1008.4 4.8 21.4 27.3 43.3 113.9 110.0 378.9
03/05 03:20 12.8 87 9.75 10.7 20 26 1008.5 4.8 22.1 27.9 44.9 118.0 115.0 396.4
03/05 03:10 12.2 89 9.61 10.4 13 17 1008.6 4.8 21.8 27.9 44.6 117.3 113.9 392.6
03/05 03:00 12.4 89 9.73 10.6 15 17 1008.6 4.8 22.1 28.0 45.0 118.4 115.3 397.5
03/05 02:50 12.5 89 9.79 10.7 17 19 1008.6 4.8 22.2 28.1 45.2 118.9 116.0 399.9
03/05 02:40 12.2 87 9.39 10.2 15 17 1008.7 4.8 21.4 27.5 43.7 114.9 110.9 382.0
03/05 02:30 12.2 87 9.39 10.1 17 20 1008.8 4.8 21.4 27.5 43.7 114.9 110.9 382.0
03/05 02:20 12.4 83 9.07 9.6 20 24 1008.9 4.8 20.7 26.9 42.2 111.0 106.2 365.7
03/05 02:10 12.3 83 9.01 9.5 19 22 1008.9 4.8 20.5 26.8 42.0 110.5 105.5 363.3
03/05 02:00 12.4 83 9.07 9.6 22 32 1008.9 4.8 20.7 26.9 42.2 111.0 106.2 365.7
03/05 01:50 13 84 9.53 10.3 30 37 1009.1 4.8 21.6 27.5 43.8 115.3 111.7 384.9
03/05 01:40 13.9 83 9.95 11 26 32 1009.1 4.8 22.5 27.9 45.1 118.7 116.1 400.6
03/05 01:30 14 83 10.01 11.2 20 30 1009.1 4.8 22.6 28.0 45.3 119.2 116.8 403.0
03/05 01:20 13.8 83 9.89 10.9 19 22 1009.2 4.8 22.4 27.9 44.9 118.1 115.5 398.2
03/05 01:10 13.9 81 9.71 10.8 22 28 1009.2 4.8 22.0 27.5 44.1 116.0 112.8 389.1
03/05 01:00 14.1 81 9.83 10.9 24 30 1009.2 4.8 22.2 27.7 44.5 117.0 114.2 393.8
03/05 00:50 14.3 80 9.83 11 26 32 1009.3 4.8 22.2 27.6 44.4 116.7 113.9 392.8
03/05 00:40 14 81 9.77 10.9 20 24 1009.4 4.8 22.1 27.6 44.3 116.5 113.5 391.5
03/05 00:30 14.1 82 9.95 11.1 26 35 1009.4 4.8 22.5 27.9 45.0 118.4 115.9 399.6
03/05 00:20 14.1 80 9.71 10.7 32 37 1009.3 4.8 22.0 27.5 44.0 115.7 112.6 388.1
03/05 00:10 14.6 80 10.01 11.2 22 24 1009.4 4.8 22.6 27.8 45.0 118.3 115.9 400.0
03/05 00:00 14.6 79 9.89 11 26 32 1009.5 4.8 22.3 27.6 44.5 117.0 114.3 394.2
02/05 23:50 14.5 79 9.83 10.9 26 30 1009.4 4.8 22.2 27.6 44.3 116.4 113.6 391.9
02/05 23:40 14.5 78 9.7 10.7 30 35 1009.4 4.8 21.9 27.3 43.7 115.0 111.8 385.7
02/05 23:30 14.4 77 9.52 10.4 28 33 1009.4 4.8 21.5 27.1 43.0 113.2 109.6 377.6
02/05 23:20 14.5 76 9.45 10.3 28 33 1009.5 4.8 21.4 26.9 42.7 112.3 108.5 373.9
02/05 23:10 14.5 78 9.7 10.7 33 37 1009.4 4.8 21.9 27.3 43.7 115.0 111.8 385.7
02/05 23:00 14.2 79 9.65 10.6 26 32 1009.7 4.8 21.8 27.4 43.7 114.9 111.6 384.9
02/05 22:50 14.5 77 9.58 10.5 26 30 1009.7 4.8 21.7 27.2 43.2 113.7 110.2 380.1
02/05 22:40 14.3 77 9.46 10.3 26 30 1009.7 4.8 21.4 27.0 42.9 112.7 108.9 375.4
02/05 22:30 14.4 76 9.39 10.2 24 32 1009.8 4.8 21.3 26.9 42.5 111.8 107.8 371.6
02/05 22:20 14.4 75 9.27 10 26 32 1010 4.8 21.0 26.7 42.0 110.5 106.2 366.1
02/05 22:10 14.3 75 9.21 9.9 28 32 1010 4.8 20.9 26.6 41.9 110.0 105.6 363.7
02/05 22:00 14.4 75 9.27 10 26 35 1010 4.8 21.0 26.7 42.0 110.5 106.2 366.1
02/05 21:50 14.7 72 9.07 9.7 30 37 1009.8 4.8 20.6 26.3 41.1 107.9 103.2 355.3
02/05 21:40 14.7 73 9.19 9.9 28 33 1009.9 4.8 20.8 26.5 41.6 109.2 104.8 360.9
02/05 21:30 14.9 72 9.18 9.9 28 35 1009.9 4.8 20.8 26.4 41.4 108.8 104.4 359.5
02/05 21:20 14.8 71 8.99 9.6 28 30 1009.8 4.8 20.4 26.1 40.7 106.9 102.0 351.2
02/05 21:10 14.7 72 9.07 9.7 22 28 1009.8 4.8 20.6 26.3 41.1 107.9 103.2 355.3
02/05 21:00 14.5 73 9.08 9.7 20 28 1009.9 4.8 20.6 26.3 41.2 108.3 103.6 356.7
02/05 20:50 14.5 72 8.96 9.5 22 24 1009.7 4.8 20.3 26.1 40.7 107.0 102.0 351.1
02/05 20:40 14.8 71 8.99 9.6 24 28 1009.6 4.8 20.4 26.1 40.7 106.9 102.0 351.1
02/05 20:30 15 71 9.1 9.8 26 33 1009.6 4.8 20.6 26.2 41.0 107.8 103.1 355.3
02/05 20:20 15.3 69 9.01 9.8 26 32 1009.5 4.8 20.4 26.0 40.5 106.4 101.5 349.8
02/05 20:10 15.2 68 8.83 9.3 24 28 1009.4 4.8 20.0 25.7 39.8 104.6 99.3 341.9
02/05 20:00 15.1 69 8.9 9.5 24 32 1009.4 4.8 20.2 25.9 40.2 105.5 100.4 345.6
02/05 19:50 15.4 68 8.93 9.5 26 30 1009.3 4.8 20.2 25.8 40.1 105.4 100.4 345.6
02/05 19:40 15.1 72 9.29 10.1 20 26 1009.3 4.8 21.0 26.5 41.7 109.7 105.5 363.5
02/05 19:30 15 74 9.49 10.4 20 26 1009.3 4.8 21.4 26.8 42.6 112.0 108.3 373.3
02/05 19:20 14.8 75 9.5 10.4 19 19 1009.3 4.8 21.5 26.9 42.7 112.4 108.7 374.7
02/05 19:10 14.6 75 9.39 10.2 17 19 1009.2 4.8 21.2 26.8 42.4 111.4 107.5 370.5
02/05 19:00 14.8 75 9.5 10.4 20 24 1009.2 4.8 21.5 26.9 42.7 112.4 108.7 374.7
02/05 18:50 14.2 79 9.65 10.6 19 20 1009 4.8 21.8 27.3 43.7 114.9 111.6 384.7
02/05 18:40 14.2 80 9.77 10.9 11 13 1009 4.8 22.1 27.5 44.2 116.2 113.2 390.4
02/05 18:30 14.5 81 10.07 11.3 11 15 1009 4.8 22.7 27.9 45.3 119.1 116.9 403.2
02/05 18:20 15.2 78 10.12 11.4 13 15 1008.9 4.8 22.8 27.8 45.1 118.5 116.5 402.0
02/05 18:10 15.6 78 10.37 11.9 17 20 1008.8 4.8 23.3 28.1 45.9 120.7 119.3 411.8
02/05 18:00 15.7 78 10.44 11.9 15 17 1008.8 4.8 23.4 28.2 46.1 121.3 120.1 414.6
02/05 17:50 16.2 73 10.07 11.5 20 20 1008.5 4.8 22.6 27.4 44.3 116.4 114.3 394.4
02/05 17:40 16.3 72 9.99 11.2 19 20 1008.6 4.8 22.4 27.2 43.9 115.4 113.1 390.1
02/05 17:30 16.4 71 9.91 11.1 20 28 1008.5 4.8 22.3 27.1 43.5 114.4 111.8 385.9

Last Refresh: 03-May-2026 10:07:44

Bureau of Meteorology